Regional Weather Roundup
Issued by NWS Glasgow, MT

Home | Current Version | Previous Version | Text Only | Print | Product List | Glossary On
Versions: 1 2 3 4 5 6 7 8 9 10 11 12 13 14 15 16 17 18 19 20 21 22 23 24 25 26 27 28 29 30 31 32 33 34 35 36 37 38 39 40 41 42 43 44 45 46 47 48 49 50
049
ASUS45 KGGW 271815
RWRGGW
HOURLY REGIONAL WEATHER ROUNDUP FOR NORTHEAST MONTANA
NATIONAL WEATHER SERVICE GLASGOW MONTANA
1100 AM MST MON FEB 27 2017

NOTE: "FAIR" INDICATES FEW OR NO CLOUDS BELOW 12,000 FEET WITH NO
SIGNIFICANT WEATHER AND/OR OBSTRUCTIONS TO VISISBILITY.

NORTHEAST MONTANA


CITY           SKY/WX    TMP DP  RH WIND       PRES   REMARKS
GLASGOW        PTSUNNY   16   9  74 SE13      29.78F
6HR MIN TEMP:  12; 6HR MAX TEMP:  17; 6HR PCP:  0.01;

PLENTYWOOD       N/A     11   0  61 NE6         N/A
WOLF POINT     LGT SNOW  15   7  70 E13       29.83S
JORDAN           N/A     18  13  80 E9        29.73F
WINNETT          N/A     21  15  78 E2          N/A
SIDNEY         FLURRIES  18  12  77 NE13      29.82S
GLENDIVE       CLOUDY    16  12  84 NE18      29.74R WCI   0
MALTA            N/A     21  13  71 E5          N/A
SCOBEY           N/A     15  -1  49 NW5       29.79S

FORT PECK REPORTS


CITY           SKY/WX    TMP DP  RH WIND       PRES   REMARKS
FORT PECK        N/A     19  12  74 NE13        N/A
THE PINES        N/A     22  13  68 CALM        N/A

SOUTHEAST MONTANA


CITY           SKY/WX    TMP DP  RH WIND       PRES   REMARKS
BILLINGS       CLOUDY    21  15  78 NE7       29.65S
MILES CITY     CLOUDY    25  17  72 NE10      29.70R
BAKER          MOSUNNY   29  20  69 E7        29.66S
LIVINGSTON     CLOUDY    22  15  75 E8        29.55F

CENTRAL MONTANA


CITY           SKY/WX    TMP DP  RH WIND       PRES   REMARKS
HAVRE          SUNNY     18  11  74 E14       29.69F
LEWISTOWN      SUNNY     16   9  74 E10       29.58F
GREAT FALLS    SUNNY     14   9  80 SE6       29.58F
CUT BANK       CLOUDY    12   8  84 S16       29.56F FOG     WCI  -5
HELENA         SUNNY     17   9  70 N3        29.61F
BUTTE          CLOUDY    22  10  60 CALM      29.51S
BOZEMAN        CLOUDY    20  13  74 CALM      29.58F

WESTERN MONTANA


CITY           SKY/WX    TMP DP  RH WIND       PRES   REMARKS
MISSOULA       CLOUDY    26  20  77 SE9       29.61S
KALISPELL      NOT AVBL

NORTH DAKOTA


CITY           SKY/WX    TMP DP  RH WIND       PRES   REMARKS
WILLISTON      LGT SNOW  13   6  74 NE12      29.84F WCI  -1
DICKINSON      CLOUDY    18  14  84 NE15      29.71S
MINOT          LGT SNOW  13   6  74 NW6       29.86S
BISMARCK       MOSUNNY   23  17  78 NE14      29.81F

SOUTHERN SASKATCHEWAN


CITY           SKY/WX    TMP DP  RH WIND       PRES   REMARKS
REGINA         MOSUNNY    7  -4  61 W3        29.84S
MOOSE JAW      PTSUNNY   10  -2  56 S2        29.84F
ESTEVAN        CLOUDY     7   0  72 N5        29.86S
SWIFT CURRENT  SUNNY      9   3  78 S9        29.73S





USA.gov is the U.S. government's official web portal to all federal, state and local government web resources and services.